Weather History for KCRG - May, 2013

Change the Weather History Date:

Saturday, May 4, 2013

  Actual Average Record
Temperature  
Mean Temperature 68 °F -  
Max Temperature 71 °F 80 °F 93 °F (2002)
Min Temperature 66 °F 60 °F 51 °F (1999)
Cooling Degree Days 4    
Growing Degree Days 18 (Base 50)    
Moisture  
Dew Point 65 °F    
Average Humidity 86    
Maximum Humidity 90    
Minimum Humidity 68    
Precipitation  
Precipitation 0.87 in - - ()
Sea Level Pressure  
Sea Level Pressure 29.78 in    
Wind  
Wind Speed 15 mph (East)    
Max Wind Speed 24 mph    
Max Gust Speed 37 mph    
Visibility 5 miles    
Events Rain , Thunderstorm    
Averages and records for this station are not official NWS values.
T = Trace of Precipitation, MM = Missing Value Source: NWS Daily Summary

Daily Weather History Graph

Daily Weather History Graph

Search for Another Location

Airport or City:

Trip Planner

Search our weather history database for the weather conditions in past years. The results will help you decide how hot, cold, wet, or windy it might be!

Date:

Astronomy

May. 04, 2013 Rise Set
Actual Time 6:39 AM EDT 8:06 PM EDT
Civil Twilight 6:14 AM EDT 8:31 PM EDT
Nautical Twilight 5:43 AM EDT 9:02 PM EDT
Astronomical Twilight 5:11 AM EDT 9:34 PM EDT
Moon 3:15 AM EDT 3:22 PM EDT
Length of Visible Light 14h 17m
Length of Day
13h 26m
Waning Crescent, 27% of the Moon is Illuminated
May 4
Waning Crescent
May 9
New
May 18
First Quarter
May 25
Full
May 31
Last Quarter

Hourly Weather History & Observations

Time (EDT) Temp. Dew Point Humidity Pressure Visibility Wind Dir Wind Speed Gust Speed Precip Events Conditions
12:53 AM 71.1 °F 60.1 °F 68% 29.85 in 10.0 mi East 16.1 mph 26.5 mph N/A   Overcast
1:53 AM 70.0 °F 61.0 °F 73% 29.83 in 10.0 mi ESE 8.1 mph - 0.00 in Rain Light Rain
2:53 AM 69.1 °F 57.9 °F 68% 29.81 in 10.0 mi East 12.7 mph 18.4 mph 0.01 in Rain Light Rain
3:53 AM 69.1 °F 62.1 °F 78% 29.80 in 6.0 mi East 9.2 mph - 0.00 in Rain Light Rain
4:26 AM 66.2 °F 62.6 °F 88% 29.80 in 5.0 mi East 17.3 mph 23.0 mph 0.02 in Rain Light Rain
4:53 AM 66.9 °F 63.0 °F 87% 29.80 in 3.0 mi ENE 16.1 mph 23.0 mph 0.03 in Rain Light Rain
5:53 AM 66.9 °F 64.0 °F 90% 29.79 in 4.0 mi East 11.5 mph 19.6 mph 0.08 in Rain Light Rain
6:53 AM 68.0 °F 64.0 °F 87% 29.80 in 10.0 mi ENE 10.4 mph - 0.02 in   Overcast
7:29 AM 68.0 °F 64.4 °F 88% 29.81 in 2.0 mi ENE 6.9 mph - 0.02 in Rain Rain
7:53 AM 68.0 °F 64.9 °F 90% 29.81 in 4.0 mi ENE 8.1 mph - 0.02 in   Overcast
8:53 AM 70.0 °F 64.0 °F 81% 29.81 in 10.0 mi East 15.0 mph 21.9 mph 0.00 in   Overcast
9:03 AM 69.8 °F 64.4 °F 83% 29.80 in 4.0 mi East 16.1 mph 24.2 mph 0.01 in Rain Light Rain
9:07 AM 69.8 °F 64.4 °F 83% 29.80 in 3.0 mi ENE 18.4 mph 24.2 mph 0.01 in Rain Rain
9:53 AM 69.1 °F 64.9 °F 87% 29.81 in 9.0 mi East 15.0 mph 23.0 mph 0.01 in   Overcast
10:46 AM 69.8 °F 64.4 °F 83% 29.81 in 1.5 mi East 16.1 mph 24.2 mph 0.01 in Rain Light Rain
10:53 AM 68.0 °F 64.9 °F 90% 29.81 in 1.5 mi East 12.7 mph 24.2 mph 0.04 in Rain Rain
11:53 AM 68.0 °F 64.9 °F 90% 29.82 in 1.5 mi East 16.1 mph 24.2 mph 0.14 in Rain Rain
12:00 PM 68.0 °F 64.4 °F 88% 29.81 in 2.0 mi ENE 15.0 mph 24.2 mph 0.02 in Rain Rain
12:20 PM 68.0 °F 64.4 °F 88% 29.81 in 3.0 mi ENE 17.3 mph 28.8 mph 0.04 in Rain Light Rain
12:35 PM 68.0 °F 64.4 °F 88% 29.80 in 2.5 mi East 15.0 mph 23.0 mph 0.06 in Rain Rain
12:53 PM 68.0 °F 64.9 °F 90% 29.80 in 2.0 mi East 15.0 mph 23.0 mph 0.08 in Rain Light Rain
1:00 PM 68.0 °F 64.4 °F 88% 29.80 in 3.0 mi East 12.7 mph 24.2 mph 0.00 in Rain Light Rain
1:14 PM 69.8 °F 64.4 °F 83% 29.79 in 1.0 mi East 16.1 mph 25.3 mph 0.01 in Rain Rain
1:53 PM 69.1 °F 64.9 °F 87% 29.79 in 1.0 mi ENE 17.3 mph 26.5 mph 0.08 in Rain Rain
2:29 PM 68.0 °F 64.4 °F 88% 29.78 in 3.0 mi ENE 17.3 mph 25.3 mph 0.05 in Rain Light Rain
2:53 PM 68.0 °F 64.9 °F 90% 29.78 in 3.0 mi East 16.1 mph 24.2 mph 0.06 in Rain Light Rain
3:40 PM 69.8 °F 66.2 °F 88% 29.76 in 10.0 mi ENE 15.0 mph 26.5 mph 0.00 in   Overcast
3:53 PM 70.0 °F 66.0 °F 87% 29.76 in 10.0 mi East 15.0 mph 24.2 mph 0.00 in   Overcast
4:09 PM 69.8 °F 64.4 °F 83% 29.75 in 10.0 mi East 16.1 mph 25.3 mph N/A   Overcast
4:50 PM 69.8 °F 66.2 °F 88% 29.75 in 3.0 mi East 16.1 mph 25.3 mph 0.00 in Rain Light Rain
4:51 PM 69.1 °F 66.0 °F 90% 29.75 in 3.0 mi East 15.0 mph 23.0 mph 0.00 in Rain Light Rain
5:27 PM 69.8 °F 66.2 °F 88% 29.74 in 2.0 mi East 15.0 mph 25.3 mph 0.01 in Rain Light Rain
5:34 PM 69.8 °F 64.4 °F 83% 29.74 in 2.0 mi East 16.1 mph 31.1 mph 0.01 in Rain Light Rain
5:53 PM 69.1 °F 64.9 °F 87% 29.73 in 2.0 mi East 20.7 mph 29.9 mph 0.01 in Rain Light Rain
6:51 PM 68.0 °F 64.4 °F 88% 29.73 in 1.8 mi East 23.0 mph 33.4 mph 0.06 in Rain Light Rain
6:53 PM 68.0 °F 64.9 °F 90% 29.73 in 1.8 mi East 19.6 mph 33.4 mph 0.06 in Rain Light Rain
7:05 PM 68.0 °F 64.4 °F 88% 29.72 in 2.5 mi East 20.7 mph 35.7 mph 0.01 in Rain Light Rain
7:26 PM 68.0 °F 64.4 °F 88% 29.72 in 2.5 mi East 18.4 mph 34.5 mph 0.05 in Rain , Thunderstorm Thunderstorms and Rain
7:35 PM 68.0 °F 64.4 °F 88% 29.72 in 5.0 mi East 24.2 mph 36.8 mph 0.06 in Rain , Thunderstorm Light Thunderstorms and Rain
7:53 PM 69.1 °F 66.0 °F 90% 29.75 in 2.5 mi East 19.6 mph 33.4 mph 0.09 in Rain , Thunderstorm Thunderstorms and Rain
8:00 PM 69.8 °F 66.2 °F 88% 29.74 in 3.0 mi East 16.1 mph 31.1 mph 0.01 in Rain Light Rain
8:53 PM 69.1 °F 66.0 °F 90% 29.75 in 10.0 mi East 18.4 mph 27.6 mph 0.08 in Rain Light Rain
9:27 PM 69.8 °F 66.2 °F 88% 29.76 in 10.0 mi East 15.0 mph 27.6 mph 0.00 in   Overcast
9:53 PM 70.0 °F 66.0 °F 87% 29.78 in 10.0 mi ESE 16.1 mph 26.5 mph 0.01 in Rain Light Rain
10:29 PM 69.8 °F 66.2 °F 88% 29.77 in 6.0 mi ESE 15.0 mph 23.0 mph 0.00 in Rain Light Rain
10:53 PM 70.0 °F 66.9 °F 90% 29.78 in 9.0 mi ESE 16.1 mph 21.9 mph 0.01 in Rain Light Rain
11:01 PM 69.8 °F 66.2 °F 88% 29.77 in 8.0 mi ESE 13.8 mph 21.9 mph 0.00 in Rain Light Rain
11:36 PM 69.8 °F 66.2 °F 88% 29.77 in 6.0 mi SE 12.7 mph 20.7 mph 0.03 in Rain Light Rain
11:53 PM 70.0 °F 66.9 °F 90% 29.78 in 10.0 mi SE 10.4 mph - 0.04 in Rain Light Rain